Location: Benque
(43.2594°N, 0.9178°E)
Time: 09:18:15
(UTC+00:00)

Cosmos 2227 - Visible Passes

Search period start: 06 June 2020 00:00
Search period end: 16 June 2020 00:00
Orbit: 833 x 862 km, 71.0° (Epoch: 05 June)

Date Brightness Start Highest point End Pass type
(mag) Time Alt. Az. Time Alt. Az. Time Alt. Az.
06 Jun 6.2 00:23:20 10° N 00:28:05 26° NE 00:32:48 10° ESE visible
06 Jun 4.3 02:07:00 10° NNW 02:12:37 56° WSW 02:16:35 20° S visible
07 Jun 6.1 00:10:11 10° N 00:14:54 25° NE 00:19:36 10° ESE visible
07 Jun 4.3 01:53:49 10° NNW 01:59:27 57° WSW 02:02:39 26° S visible
07 Jun 6.1 23:57:01 10° N 00:01:43 25° NE 00:06:22 10° ESE visible
08 Jun 4.3 01:40:38 10° NNW 01:46:17 58° WSW 01:48:54 31° S visible
08 Jun 6.1 23:43:51 10° N 23:48:31 24° NE 23:53:09 10° ESE visible
09 Jun 4.3 01:27:27 10° NNW 01:33:07 59° WSW 01:35:16 37° S visible
09 Jun 6.1 23:30:42 10° N 23:35:19 24° NE 23:39:51 10° ESE visible
10 Jun 4.3 01:14:16 10° NNW 01:19:56 60° WSW 01:21:45 41° SSW visible
10 Jun 6.1 23:17:33 10° N 23:22:08 24° NE 23:26:25 11° ESE visible
11 Jun 4.3 01:01:05 10° NNW 01:06:46 61° WSW 01:08:19 45° SSW visible
11 Jun 6.1 23:04:23 10° N 23:08:56 23° NE 23:13:02 12° E visible
12 Jun 4.3 00:47:54 10° NNW 00:53:36 62° WSW 00:54:56 48° SSW visible
12 Jun 6.1 22:51:13 10° N 22:55:45 23° NE 22:59:44 12° E visible
13 Jun 4.3 00:34:43 10° NNW 00:40:25 64° WSW 00:41:38 51° SSW visible
13 Jun 6.1 22:38:03 10° N 22:42:34 23° NE 22:46:28 12° E visible
14 Jun 4.2 00:21:32 10° NNW 00:27:14 65° WSW 00:28:23 53° SSW visible
14 Jun 6.1 22:24:54 10° N 22:29:23 23° NE 22:33:16 12° E visible
15 Jun 4.2 00:08:21 10° NNW 00:14:03 66° WSW 00:15:10 54° SSW visible
15 Jun 6.0 22:11:44 10° N 22:16:11 22° NE 22:20:06 12° E visible
